Bow Valley, Alberta

10:14 PM MDT on May 25, 2017 (GMT -0600)
Bow Valley

Weather History for CWXA - July, 2013

Change the Weather History Date:

Friday, July 26, 2013

  Actual Average Record
Temperature  
Mean Temperature 64 °F -  
Max Temperature 78 °F - - ()
Min Temperature 51 °F - - ()
Growing Degree Days 14 (Base 50)    
Moisture  
Dew Point 56 °F    
Average Humidity 76    
Maximum Humidity 96    
Minimum Humidity 49    
Precipitation  
Precipitation 0.00 in - - ()
Sea Level Pressure  
Sea Level Pressure 30.03 in    
Wind  
Wind Speed 2 mph ()    
Max Wind Speed 6 mph    
Max Gust Speed -    
T = Trace of Precipitation, MM = Missing Value Source: Averaged Metar Reports

Daily Weather History Graph

Daily Weather History Graph

Search for Another Location

Airport or City:

Trip Planner

Search our weather history database for the weather conditions in past years. The results will help you decide how hot, cold, wet, or windy it might be!

Date:

Astronomy

Jul. 26, 2013 Rise Set
Actual Time 5:57 AM MDT 9:35 PM MDT
Civil Twilight 5:16 AM MDT 10:16 PM MDT
Nautical Twilight 4:19 AM MDT 11:12 PM MDT
Astronomical Twilight 2:54 AM MDT 12:34 AM MDT
Moon 11:08 PM MDT 11:17 AM MDT
Length of Visible Light 17h 00m
Length of Day
15h 37m
Waning Gibbous, 79% of the Moon is Illuminated
Jul 26
Waning Gibbous
Jul 29
Last Quarter
Aug 6
New
Aug 14
First Quarter
Aug 20
Full

Hourly Weather History & Observations

Time (MDT) Temp. Dew Point Humidity Pressure Visibility Wind Dir Wind Speed Gust Speed Precip Events Conditions
12:00 AM 58 °F 56 °F 89% 30.09 in - NNW 1.2 mph - -  
12:00 AM 58.3 °F 55.6 °F 91% 30.09 in - NNW 1.2 mph - N/A   Unknown
1:00 AM 57.2 °F 54.7 °F 91% 30.10 in - NNE 1.2 mph - N/A   Unknown
2:00 AM 56.3 °F 54.3 °F 93% 30.10 in - Calm Calm - N/A   Unknown
3:00 AM 55.6 °F 53.8 °F 94% 30.10 in - Calm Calm - N/A   Unknown
4:00 AM 52.2 °F 50.7 °F 95% 30.10 in - Calm Calm - N/A   Unknown
5:00 AM 52.5 °F 51.4 °F 96% 30.10 in - NE 1.2 mph - N/A   Unknown
6:00 AM 53 °F 51 °F 90% 30.10 in - ENE 1.2 mph - -  
6:00 AM 52.5 °F 50.9 °F 94% 30.10 in - ENE 1.2 mph - N/A   Unknown
7:00 AM 52.3 °F 49.5 °F 90% 30.13 in - North 1.2 mph - N/A   Unknown
8:00 AM 53.2 °F 50.0 °F 89% 30.13 in - NE 2.3 mph - N/A   Unknown
9:00 AM 57.6 °F 53.1 °F 85% 30.11 in - WNW 3.5 mph - N/A   Unknown
10:00 AM 62.4 °F 54.0 °F 74% 30.09 in - West 5.8 mph - N/A   Unknown
11:00 AM 67.8 °F 55.9 °F 66% 30.06 in - West 2.3 mph - N/A   Unknown
12:00 PM 71 °F 58 °F 54% 30.02 in - ENE 3.5 mph - -  
12:00 PM 71.4 °F 57.9 °F 62% 30.02 in - ENE 3.5 mph - N/A   Unknown
1:00 PM 72.1 °F 59.9 °F 65% 30.01 in - NE 5.8 mph - N/A   Unknown
2:00 PM 73.2 °F 59.7 °F 63% 30.00 in - NNE 4.6 mph - N/A   Unknown
3:00 PM 75.4 °F 60.6 °F 60% 29.98 in - NNW 4.6 mph - N/A   Unknown
4:00 PM 77.4 °F 57.7 °F 51% 29.96 in - North 4.6 mph - N/A   Unknown
5:00 PM 77.2 °F 59.5 °F 54% 29.95 in - North 5.8 mph - N/A   Unknown
6:00 PM 76 °F 60 °F 49% 29.94 in - NNE 5.8 mph - -  
6:00 PM 75.6 °F 60.4 °F 59% 29.94 in - NNE 5.8 mph - N/A   Unknown
7:00 PM 72.3 °F 59.5 °F 64% 29.94 in - NNE 4.6 mph - N/A   Unknown
8:00 PM 70.7 °F 59.4 °F 67% 29.93 in - North 2.3 mph - N/A   Unknown
9:00 PM 67.3 °F 59.0 °F 75% 29.91 in - North 1.2 mph - N/A   Unknown
10:00 PM 60.1 °F 56.1 °F 87% 29.91 in - Calm Calm - N/A   Unknown
11:00 PM 56.3 °F 54.1 °F 92% 29.90 in - SSW 1.2 mph - N/A   Unknown